Location: Huntsville
(41.2590°N, 111.7678°W)
Time: 04:19:04
(UTC+00:00)

Transit 2A - All Passes

Search period start: 25 September 2022 00:00
Search period end: 05 October 2022 00:00
Orbit: 601 x 956 km, 66.7° (Epoch: 24 September)

Date Brightness Start Highest point End Pass type
(mag) Time Alt. Az. Time Alt. Az. Time Alt. Az.
25 Sep - 06:44:33 10° SE 06:46:21 12° ESE 06:48:07 10° E night (unlit)
25 Sep - 08:24:27 10° SW 08:28:57 64° WNW 08:33:17 10° NNE visible
25 Sep - 15:28:18 10° N 15:30:49 14° NE 15:33:26 10° ENE daylight
25 Sep - 17:09:46 10° NNW 17:14:28 85° WSW 17:19:37 10° SSE daylight
26 Sep - 07:50:02 10° SSW 07:54:34 82° ESE 07:58:56 10° NNE night (unlit)
26 Sep - 09:36:10 10° WNW 09:38:14 13° NW 09:40:18 10° NNW visible
26 Sep - 14:55:38 10° NNE 14:56:08 10° NE 14:56:39 10° NE daylight
26 Sep - 16:35:27 10° NNW 16:40:05 64° ENE 16:45:10 10° SE daylight
26 Sep - 18:20:04 10° WNW 18:22:48 15° WSW 18:25:40 10° SW daylight
27 Sep - 07:15:51 10° S 07:20:15 51° ESE 07:24:29 10° NE night (unlit)
27 Sep - 09:00:31 10° W 09:03:37 18° NW 09:06:41 10° N visible
27 Sep - 16:01:14 10° NNW 16:05:41 43° NE 16:10:30 10° SE daylight
27 Sep - 17:44:50 10° WNW 17:48:35 23° WSW 17:52:36 10° SSW daylight
28 Sep - 06:41:56 10° S 06:45:59 32° ESE 06:49:52 10° NE night (unlit)
28 Sep - 08:25:18 10° WSW 08:29:04 26° NW 08:32:46 10° N visible
28 Sep - 15:27:06 10° N 15:31:12 30° NE 15:35:36 10° ESE daylight
28 Sep - 17:10:01 10° NW 17:14:19 35° WSW 17:19:00 10° S daylight
29 Sep - 06:08:23 10° SSE 06:11:44 20° ESE 06:14:59 10° ENE night (unlit)
29 Sep - 07:50:23 10° SW 07:54:35 38° NW 07:58:40 10° NNE night (unlit)
29 Sep - 14:53:07 10° N 14:56:40 21° NE 15:00:26 10° E daylight
29 Sep - 16:35:25 10° NW 16:40:01 53° WSW 16:45:05 10° S daylight
30 Sep - 05:35:30 10° SE 05:37:32 13° ESE 05:39:33 10° E night (unlit)
30 Sep - 07:15:42 10° SW 07:20:09 60° WNW 07:24:27 10° NNE night (unlit)
30 Sep - 14:19:20 10° N 14:22:05 15° NE 14:24:56 10° E daylight
30 Sep - 16:00:57 10° NNW 16:05:41 81° WSW 16:10:53 10° SSE daylight
01 Oct - 06:41:15 10° SSW 06:45:46 87° ESE 06:50:08 10° NNE night (unlit)
01 Oct - 08:27:39 10° WNW 08:29:29 12° NW 08:31:19 10° NNW night (unlit)
01 Oct - 13:46:09 10° NNE 13:47:25 11° NE 13:48:41 10° NE daylight
01 Oct - 15:26:37 10° NNW 15:31:19 68° ENE 15:36:29 10° SE daylight
01 Oct - 17:11:23 10° WNW 17:14:00 14° WSW 17:16:45 10° SW daylight
02 Oct - 06:07:02 10° SSW 06:11:26 54° ESE 06:15:41 10° NE night (unlit)
02 Oct - 07:51:53 10° W 07:54:51 17° NW 07:57:47 10° N night (unlit)
02 Oct - 14:52:22 10° NNW 14:56:54 46° NE 15:01:51 10° SE daylight
02 Oct - 16:36:05 10° WNW 16:39:48 22° WSW 16:43:46 10° SSW daylight
03 Oct - 05:33:05 10° S 05:37:09 34° ESE 05:41:06 10° NE night (unlit)
03 Oct - 07:16:38 10° WSW 07:20:17 25° NW 07:23:53 10° N night (unlit)
03 Oct - 14:18:13 10° N 14:22:26 31° NE 14:26:59 10° ESE daylight
03 Oct - 16:01:14 10° NW 16:05:32 33° WSW 16:10:13 10° S daylight
04 Oct - 04:59:29 10° SSE 05:02:55 22° ESE 05:06:15 10° ENE night (unlit)
04 Oct - 06:41:40 10° WSW 06:45:47 36° NW 06:49:49 10° NNE night (unlit)
04 Oct - 13:44:12 10° N 13:47:55 22° NE 13:51:52 10° E daylight
04 Oct - 15:26:36 10° NW 15:31:14 50° WSW 15:36:19 10° S daylight
